Weather History for De Queen, AR

Change the Weather History Date:

Friday, February 7, 2014

  Actual Average Record
Temperature  
Mean Temperature 29 °F 43 °F  
Max Temperature 33 °F 56 °F 80 °F (1937)
Min Temperature 25 °F 30 °F 14 °F (1975)
Degree Days  
Heating Degree Days 36 22  
Month to date heating degree days 206 157  
Since 1 July heating degree days 2347 2093  
Cooling Degree Days 0 0  
Month to date cooling degree days 0 0  
Year to date cooling degree days 0 1  
Moisture  
Dew Point 23 °F    
Average Humidity 81    
Maximum Humidity 100    
Minimum Humidity 61    
Precipitation  
Precipitation 0.10 in 0.15 in 1.12 in (1979)
Month to date precipitation 1.02 1.10  
Year to date precipitation 1.94 4.42  
Snow  
Snow 1.00 in - - ()
Month to date snowfall 1.1  
Since 1 July snowfall 1.2  
Snow Depth 0.00 in    
Sea Level Pressure  
Sea Level Pressure 30.33 in    
Wind  
Wind Speed 6 mph (East)    
Max Wind Speed 12 mph    
Max Gust Speed 15 mph    
Visibility 6 miles    
Events Fog , Snow    
T = Trace of Precipitation, MM = Missing Value Source: NWS Daily Summary

Daily Weather History Graph

Daily Weather History Graph

Search for Another Location

Airport:

Trip Planner

Search our weather history database for the weather conditions in past years. The results will help you decide how hot, cold, wet, or windy it might be!

Date:

Astronomy

Feb. 07, 2014 Rise Set
Actual Time 7:09 AM CST 5:54 PM CST
Civil Twilight 6:43 AM CST 6:19 PM CST
Nautical Twilight 6:14 AM CST 6:49 PM CST
Astronomical Twilight 5:45 AM CST 7:18 PM CST
Moon 12:08 PM CST (2/7) 1:24 AM CST (2/7)
Length of Visible Light 11h 36m
Length of Day
10h 44m
First Quarter, 59% of the Moon is Illuminated
Feb 7
First Quarter
Feb 14
Full
Feb 22
Last Quarter
Mar 1
New
Mar 8
First Quarter

Hourly Weather History & Observations

Time (CST) Temp. Windchill Dew Point Humidity Pressure Visibility Wind Dir Wind Speed Gust Speed Precip Events Conditions
12:53 AM 26.1 °F 20.5 °F 19.9 °F 78% 30.42 in 9.0 mi ENE 4.6 mph - N/A   Overcast
1:53 AM 26.1 °F 18.4 °F 19.0 °F 75% 30.41 in 9.0 mi East 6.9 mph - N/A   Overcast
2:53 AM 25.0 °F 18.1 °F 18.0 °F 75% 30.40 in 10.0 mi East 5.8 mph - N/A   Overcast
3:53 AM 25.0 °F 17.1 °F 19.0 °F 78% 30.40 in 10.0 mi East 6.9 mph - N/A   Overcast
4:53 AM 25.0 °F 15.5 °F 19.0 °F 78% 30.40 in 10.0 mi East 9.2 mph - N/A   Overcast
5:53 AM 25.0 °F 18.1 °F 18.0 °F 75% 30.40 in 10.0 mi East 5.8 mph - N/A   Overcast
6:53 AM 25.0 °F 18.1 °F 18.0 °F 75% 30.41 in 10.0 mi East 5.8 mph - N/A   Overcast
7:45 AM 25.0 °F 14.8 °F 18.0 °F 75% 30.39 in 1.0 mi East 10.4 mph - N/A   Haze
7:53 AM 25.0 °F 15.5 °F 18.0 °F 75% 30.40 in 0.5 mi ENE 9.2 mph - N/A   Haze
8:00 AM 25.0 °F 15.5 °F 18.0 °F 75% 30.40 in 3.0 mi East 9.2 mph - N/A   Haze
8:53 AM 25.0 °F 16.3 °F 19.0 °F 78% 30.41 in 10.0 mi East 8.1 mph - N/A   Overcast
9:53 AM 27.0 °F 16.7 °F 19.0 °F 72% 30.41 in 10.0 mi East 11.5 mph - N/A   Overcast
10:53 AM 28.0 °F 20.8 °F 19.9 °F 72% 30.41 in 10.0 mi East 6.9 mph - N/A   Overcast
11:15 AM 28.0 °F 20.8 °F 19.9 °F 72% 30.40 in 10.0 mi ENE 6.9 mph - N/A   Overcast
11:53 AM 28.9 °F 22.8 °F 19.9 °F 69% 30.39 in 9.0 mi Variable 5.8 mph - N/A   Overcast
12:34 PM 30.9 °F 25.2 °F 21.0 °F 67% 30.34 in 9.0 mi Variable 5.8 mph - N/A   Overcast
12:53 PM 30.9 °F 22.8 °F 21.0 °F 67% 30.32 in 9.0 mi ENE 9.2 mph - N/A   Overcast
1:53 PM 32.0 °F 28.7 °F 21.0 °F 64% 30.30 in 10.0 mi Variable 3.5 mph - N/A   Overcast
2:53 PM 32.0 °F 25.6 °F 21.0 °F 64% 30.28 in 10.0 mi ESE 6.9 mph - N/A   Overcast
3:53 PM 32.0 °F 27.5 °F 21.0 °F 64% 30.29 in 10.0 mi Variable 4.6 mph - N/A   Overcast
4:53 PM 33.1 °F - 21.9 °F 64% 30.29 in 10.0 mi Calm Calm - 0.00 in   Overcast
5:18 PM 32.0 °F 27.5 °F 21.9 °F 66% 30.29 in 1.5 mi East 4.6 mph - 0.00 in Snow Light Snow
5:41 PM 30.0 °F 24.1 °F 25.0 °F 82% 30.29 in 0.5 mi ESE 5.8 mph - 0.00 in Snow Snow
5:51 PM 28.4 °F 22.2 °F 26.6 °F 93% 30.29 in 0.2 mi East 5.8 mph - 0.00 in Fog , Snow Heavy Snow
5:53 PM 28.9 °F 22.8 °F 26.1 °F 89% 30.30 in 0.2 mi ESE 5.8 mph - 0.00 in Fog , Snow Heavy Snow
6:03 PM 28.9 °F 22.8 °F 27.0 °F 92% 30.28 in 0.8 mi ESE 5.8 mph - 0.00 in Snow Light Snow
6:31 PM 28.9 °F 25.2 °F 28.0 °F 96% 30.28 in 0.8 mi East 3.5 mph - 0.00 in Snow Light Snow
6:38 PM 28.9 °F 25.2 °F 28.0 °F 96% 30.29 in 1.0 mi East 3.5 mph - 0.00 in Snow Light Snow
6:53 PM 28.9 °F 22.8 °F 28.0 °F 96% 30.30 in 1.5 mi ESE 5.8 mph - 0.00 in Snow Light Snow
7:15 PM 28.9 °F 22.8 °F 28.0 °F 96% 30.28 in 2.0 mi East 5.8 mph - 0.00 in Snow Light Snow
7:48 PM 28.4 °F 24.6 °F 28.4 °F 100% 30.29 in 2.0 mi East 3.5 mph - 0.00 in Snow Light Snow
7:53 PM 28.9 °F - 28.0 °F 96% 30.30 in 2.5 mi Calm Calm - 0.00 in Snow Light Snow
8:06 PM 28.9 °F 25.2 °F 28.0 °F 96% 30.28 in 3.0 mi East 3.5 mph - 0.00 in Snow Light Snow
8:46 PM 28.9 °F 22.8 °F 27.0 °F 92% 30.27 in 2.5 mi East 5.8 mph - 0.00 in Snow Light Snow
8:53 PM 28.9 °F 23.9 °F 28.0 °F 96% 30.28 in 4.0 mi East 4.6 mph - 0.00 in Snow Light Snow
9:36 PM 28.9 °F 21.9 °F 27.0 °F 92% 30.28 in 4.0 mi ESE 6.9 mph - 0.00 in Snow Light Snow
9:53 PM 28.9 °F 22.8 °F 27.0 °F 92% 30.28 in 4.0 mi East 5.8 mph - 0.00 in Snow Light Snow
10:23 PM 28.9 °F 22.8 °F 27.0 °F 92% 30.27 in 3.0 mi East 5.8 mph - 0.00 in Snow Light Snow
10:53 PM 28.9 °F 25.2 °F 27.0 °F 92% 30.28 in 4.0 mi ENE 3.5 mph - 0.00 in   Overcast
11:53 PM 28.9 °F 23.9 °F 27.0 °F 92% 30.27 in 2.5 mi East 4.6 mph - N/A   Overcast